Reflectivity
-20 -20 -14 -20 -20 -20 -20 -20 -20 -20 -20 -20 -20 -20 -20 -20 -20 -20 -20 -20 -20 -20 -20 -20 -20 -20 -20 -20 -20 -20 -20 -20 -20 -20 -20 -20 -20 -20 -20 -20 -20 -20 -20
-20 -20 -20 -20 -20 -20 -20 -20 -20 -20 -20 -20 -20 -20 -20 -20 -20 -20 -20 -20 -20 -20 -20 -20 -20 -20 -20 -20 -20 -20 -20 -20 -20 -20 -20 -20 -20 -20 -20 -20 -20 -20 -20
-20 -20 -20 -20 -20 -20 -20 -20 -20 -20 -20 -20 -20 -20 -20 -20 -20 -20 -20 -20 -20 -20 -20 -20 -20 -20 -20 -20 -20 -20 -20 -20 -20 -20 -20 -20 -20 -20 -20 -20 -20 -20 -20
-20 -20 -20 -20 -20 -20 -20 -20 -20 -20 -20 -20 -20 -20 -20 -20 -20 -20 -20 -20 -20 -20 -20 -20 -20 -20 -20 -20 -20 -20 -20 -20 -20 -20 -20 -20 -20 -20 -20 -20 -20 -20 -20
-20 -20 -20 -20 -20 -20 -20 -20 -20 -20 25 -20 -20 -17 -4 -20 -20 -20 -20 -20 -20 -20 -20 -20 -20 -20 -20 -20 -20 -20 -20 -20 -20 -20 -20 -20 -20 -20 -20 -20 -20 -20 -20
-20 -20 -20 -20 -20 -20 -20 -20 -20 -20 25 -20 -17 -1 -20 -20 -20 -20 -20 -20 -20 -20 -20 -20 -20 -20 -20 -20 -20 -20 -20 -20 -20 -20 -20 -20 -20 -20 -20 -20 -20 -20 -20
-20 -20 -20 -20 -20 -20 -20 -20 -20 -20 -20 -20 -20 -14 -12 -20 -20 -20 -20 -20 -20 -20 -20 -20 -20 -20 -20 -20 -20 -20 -20 -20 -20 -20 -20 -20 -20 -20 -20 -20 -20 -20 -20
-20 -20 -19 -7 2 -1 -16 -18 -20 -20 -20 -20 -19 -17 -19 -20 -20 -20 -20 -20 -20 -20 -20 -20 -20 -20 -20 -20 3 -20 -20 -20 -20 -20 -20 -20 -20 -20 -20 -20 -20 -20 -20
-20 -20 -12 -20 -20 -13 -19 -20 -20 -18 -20 -5 1 -19 -16 -17 -20 -20 -20 -20 -20 -20 -20 -20 -20 -20 -5 1 -20 -20 -20 -20 -20 -20 -20 -20 -20 -20 -20 -20 -20 -20 -20
-20 -20 -20 -19 -16 -20 -20 -20 -20 -20 -20 -20 -17 -19 -18 -11 -5 7 7 -18 -18 -15 -20 -20 -18 12 1 3 -5 -20 -20 -20 -20 -20 -20 -20 -20 -20 -20 -20 -20 -20 -20
-20 -20 -20 -20 -20 -12 -8 -20 -20 -20 -20 -20 -20 -20 -14 -6 -20 -20 -13 2 8 -20 6 -3 21 7 7 -8 -20 -20 -20 -20 -20 -20 -20 -20 -20 -20 -20 -20 -20 -20 -20
-20 -20 -20 -20 -20 -20 -20 -20 -20 -20 -20 -20 -20 -20 -20 -20 -20 -18 -20 -20 -20 -2 16 24 15 8 14 -16 -20 -20 -20 -20 -20 -20 -20 -20 -20 -20 -20 -20 -20 -20 -20
-11 -19 -20 -20 -20 -20 -20 -20 -20 -20 -20 -20 -20 -20 -20 -20 -20 -20 -20 -20 -16 25 25 14 18 6 0 -12 -19 -20 -20 -20 -20 -20 -20 -20 -20 -20 -20 -20 -20 -20 -20
-14 -20 -20 -20 -20 -20 -20 -20 -20 -20 -20 -20 -20 -20 -20 -20 -20 -20 -20 -20 20 22 27 21 8 7 1 3 -2 2 -17 -18 -20 -20 -20 -20 -20 -20 -20 -20 -20 -20 -20
-20 -20 -20 -20 -20 -20 -20 -20 -20 -20 -20 -20 -20 -20 -20 -20 -20 -20 -20 -1 28 35 23 19 15 8 -3 -17 8 12 -3 -20 -20 -20 -20 -20 -20 -20 -20 -20 -20 -20 -20
-20 -20 -20 -20 -20 -20 -20 -20 -20 -20 -20 -20 -20 -20 -20 -20 -20 -19 -20 7 32 21 11 21 20 17 11 8 13 11 -15 -7 -20 -20 -20 -20 -20 -20 -20 -20 -20 -20 -20
-20 -20 -20 -20 -20 -20 -20 -20 -20 -20 -20 -20 -20 -20 -20 -20 -19 -19 -11 23 24 26 31 23 21 19 17 16 7 5 9 9 -18 -20 -20 -20 -20 -20 -19 -11 -20 -16 -20
-20 -20 -20 -20 -20 -20 -20 -20 -20 -20 -20 -20 -20 -20 -20 -20 -20 -20 -2 26 34 35 34 30 29 34 16 6 8 9 11 8 -16 -20 -20 -20 -18 -14 -18 -13 -2 -3 -3
-20 -20 -20 -20 -20 -20 -20 -20 -20 -20 -20 -20 -20 -20 -20 -20 -16 1 29 36 35 34 32 35 34 29 13 16 15 11 6 -18 -20 -20 -20 -20 -9 -17 -20 -20 -20 -20 -20
-20 -20 -20 -20 -20 -20 -20 -20 -20 -20 -20 -20 -20 -20 -20 -19 14 20 34 36 36 36 33 31 29 16 15 14 11 7 -20 -20 -20 -20 -20 -20 -20 -20 -20 -20 -20 -20 -20
-20 -20 -20 -20 -20 -20 -20 -20 -20 -20 -20 -20 -11 3 14 24 32 40 38 37 35 31 24 17 17 15 10 3 -18 -20 -20 -20 -20 -20 -20 -20 -20 -20 -20 -20 -20 -20 -20
-20 -20 -20 -20 -20 -20 -20 -20 -20 -20 -0 17 34 35 37 33 35 33 34 34 26 16 15 16 17 14 5 -10 -20 -20 -20 -20 -20 -20 -20 -20 -20 -20 -20 -20 -20 -20 -20
-20 -20 -20 -20 -20 -14 16 30 22 32 34 35 33 34 34 33 31 29 22 21 19 18 19 17 11 0 -5 -20 -20 -20 -20 -20 -20 -19 -20 -20 -20 -20 -20 -20 -20 -20 -20
-20 -20 -20 -20 -20 -18 14 34 12 32 16 29 30 32 20 16 29 26 21 17 14 13 7 4 -5 -18 -20 -20 -20 -20 -20 -8 -18 -20 -19 -20 -20 -20 -20 -20 -20 -20 -20
-20 -20 -20 -20 -20 -20 4 5 19 -0 -10 0 4 3 10 10 3 0 4 8 7 3 -14 -20 0 4 -2 -20 -20 -11 1 2 -4 -20 -2 1 -3 -20 -20 -20 -20 -20 -20
6 -20 -20 -20 -20 -5 -3 -0 2 19 4 -20 -17 -4 2 9 2 -4 10 8 -16 -20 -20 -20 -4 -20 -15 -20 -20 -20 -20 -20 -20 -6 1 1 3 2 -20 -20 -20 -20 -20
Wind_Speed
17 17 19 20 21 21 22 21 20 20 15 13 13 12 11 10 9 8 11 11 9 9 8 7 7 5 5 5 5 5 6 5 3 5 5 5 4 2 2 2 4 5 6
16 16 19 21 22 22 22 22 20 21 18 14 12 11 11 10 10 9 10 9 10 9 8 8 7 7 6 6 5 3 5 5 3 3 3 5 4 5 2 2 3 5 5
18 19 21 23 22 25 25 23 23 23 20 18 13 11 11 10 10 10 10 10 11 9 9 9 8 7 6 5 5 4 3 4 4 3 4 3 2 4 4 3 3 3 4
18 15 19 21 23 21 20 22 23 23 21 22 17 19 15 14 12 12 10 10 11 10 9 9 9 8 6 7 6 3 3 2 5 3 4 4 5 4 5 4 2 2 3
14 15 18 19 20 21 21 21 23 23 23 22 18 16 17 12 11 11 14 12 11 11 10 9 9 9 6 7 7 6 5 3 3 3 3 3 1 2 3 3 4 2 0
10 8 10 13 16 17 18 20 23 23 22 21 21 21 20 17 15 14 13 11 10 9 11 10 9 8 8 9 7 7 6 5 4 4 3 2 2 2 2 3 3 4 1
14 8 5 9 13 17 19 19 22 23 23 24 21 21 20 19 19 18 14 15 11 10 12 12 10 9 8 8 8 7 7 6 5 4 4 3 3 2 1 2 3 4 1
14 15 6 5 9 12 17 20 22 23 23 21 21 19 19 13 14 16 13 12 11 11 13 11 10 10 10 9 8 6 5 6 5 6 3 4 3 2 2 1 2 3 4
14 15 10 0 7 11 15 18 21 22 22 21 19 20 19 19 16 18 15 12 12 11 13 11 11 11 10 9 8 6 7 6 5 5 5 3 3 2 1 1 2 3 4
15 14 11 7 4 9 12 16 19 21 21 21 19 17 17 17 15 15 16 14 13 15 14 12 11 10 9 8 7 7 7 6 5 4 5 4 3 2 1 2 0 2 5
14 13 11 7 6 7 11 14 16 19 19 19 19 19 18 18 16 15 15 15 14 14 14 12 12 11 10 8 7 7 7 6 6 5 6 5 2 2 2 2 1 3 4
14 11 7 6 6 7 9 12 14 17 18 18 19 19 18 18 17 16 17 15 15 14 13 12 12 12 11 9 8 7 7 6 6 6 6 4 1 2 3 1 2 3 5
17 14 10 8 6 7 9 11 13 15 17 17 18 19 18 18 18 17 18 15 16 14 12 12 12 11 11 10 8 7 7 6 5 5 4 5 2 3 1 2 3 4 4
16 14 13 12 9 9 11 12 12 13 15 17 18 19 19 17 17 19 18 17 16 15 14 13 12 12 11 10 8 7 7 6 6 5 4 2 1 2 3 4 4 4 6
15 15 14 13 11 11 12 12 12 13 14 16 19 20 17 17 18 19 18 17 16 15 15 14 14 12 10 8 10 7 7 6 6 5 4 3 4 4 6 6 6 7 6
17 17 17 15 15 12 13 13 14 15 15 16 17 17 21 22 19 20 16 16 18 16 14 13 14 12 8 14 11 7 5 5 6 6 4 4 5 3 1 3 6 6 6
17 16 15 13 14 15 11 14 15 15 17 17 16 17 18 21 24 23 20 19 17 16 15 14 13 13 10 17 15 11 6 5 4 5 4 4 4 3 5 6 6 8 5
11 14 13 13 13 16 13 14 14 15 16 17 18 17 18 17 18 18 20 18 15 15 14 14 13 11 11 18 16 11 7 7 6 4 3 2 0 2 6 7 6 7 6
12 11 11 12 14 15 15 12 13 14 16 18 18 18 18 18 16 17 18 17 15 12 11 11 13 13 13 19 17 11 6 5 6 6 5 1 1 2 8 8 8 8 7
13 12 11 10 10 11 10 9 13 14 15 14 13 15 15 16 18 17 16 13 13 12 10 12 12 14 13 17 16 11 4 6 4 6 6 7 2 6 8 8 8 8 8
12 9 10 9 7 5 4 8 8 10 8 9 10 11 14 16 17 15 12 12 13 13 13 13 11 13 13 14 13 9 5 4 4 4 3 2 4 5 6 8 7 8 12
11 9 9 7 7 5 3 6 4 10 12 13 13 12 14 12 12 15 12 13 13 14 12 12 11 9 10 13 12 11 4 3 4 4 2 2 1 5 7 8 10 11 11
11 7 7 3 1 0 5 8 6 10 13 14 14 11 10 10 13 15 14 11 12 10 10 10 9 8 8 7 11 10 7 5 5 3 5 3 3 7 9 2 9 10 6
9 6 6 4 5 5 8 9 9 11 13 13 12 12 12 13 12 10 10 10 10 9 9 10 9 8 8 8 8 7 6 7 5 5 5 2 6 7 7 9 6 6 7
5 6 5 4 6 7 8 9 9 11 13 13 12 12 10 11 11 10 9 8 7 8 9 9 9 10 8 8 8 6 6 6 3 1 4 6 5 5 6 6 6 7 7
6 5 4 5 7 8 9 8 10 12 14 14 10 10 9 9 8 9 9 10 9 9 8 10 8 5 7 14 12 9 7 6 4 5 6 5 5 6 7 7 7 8 9
Wind_Direction
229 206 206 201 201 189 185 181 176 174 171 171 171 168 165 161 164 163 159 158 155 151 153 136 139 135 126 104 113 117 112 95 132 143 140 134 143 110 124 96 57 45 47
226 209 198 204 201 193 189 181 179 177 182 177 177 175 165 167 165 156 162 160 158 159 157 149 144 138 129 122 117 151 137 103 73 250 205 174 171 203 181 96 51 39 29
229 211 202 203 200 200 194 186 184 181 184 180 172 168 163 162 167 168 164 166 163 163 157 153 142 142 141 130 122 118 179 136 103 47 315 206 248 175 175 162 48 27 36
240 232 204 206 208 208 198 191 190 186 188 181 179 179 174 174 180 174 168 164 166 163 161 153 149 149 137 137 120 118 114 187 144 118 59 25 346 276 179 191 162 36 12
258 241 219 209 210 205 199 195 192 188 190 187 185 181 183 182 171 171 163 169 168 168 165 160 155 148 145 132 130 138 125 110 118 115 144 111 80 351 292 226 169 222 164
336 277 257 206 212 204 201 202 198 195 191 190 191 191 186 179 174 173 172 172 168 167 169 165 159 151 139 139 139 131 126 112 120 124 143 177 240 192 264 269 275 315 116
24 356 254 218 214 201 202 204 205 201 194 192 196 194 189 182 182 177 177 170 172 175 172 168 163 156 147 145 142 132 132 134 135 144 131 131 122 176 151 264 303 293 295
19 18 358 219 230 219 205 207 207 208 199 197 197 194 193 188 188 186 177 176 175 173 165 168 164 149 147 148 144 136 126 126 129 131 132 130 135 164 128 103 279 285 242
13 13 17 154 216 212 213 212 212 211 203 199 197 196 194 193 191 183 177 176 169 161 167 163 157 151 156 153 152 141 135 138 137 143 138 142 151 130 104 354 294 341 304
5 8 359 356 206 208 214 217 218 217 211 200 198 195 190 191 187 179 178 171 163 159 157 153 156 154 150 156 161 143 137 144 143 152 149 151 145 147 135 218 207 251 289
350 351 346 331 279 234 217 205 217 218 214 206 200 194 190 189 183 178 171 169 161 151 151 158 155 155 156 167 166 140 145 147 149 157 146 137 164 123 213 237 281 297 296
328 325 322 298 262 243 235 224 215 211 213 207 204 201 190 184 180 176 169 151 150 153 151 154 157 162 161 172 159 152 146 156 160 149 151 141 143 194 243 301 346 314 289
319 317 320 291 264 249 238 233 225 218 206 205 205 199 196 185 178 167 156 151 148 139 150 158 165 166 162 168 159 151 150 156 157 138 157 118 196 212 300 327 337 299 305
313 312 311 302 272 248 234 232 231 227 213 199 198 204 191 181 175 163 150 146 139 147 165 159 163 165 161 160 157 164 157 161 138 135 117 114 216 296 331 312 284 312 314
304 304 297 294 277 255 241 233 227 219 223 210 197 191 188 176 158 157 147 137 145 158 162 163 157 160 163 163 161 171 172 160 144 129 138 148 47 37 2 320 346 318 334
301 300 304 301 294 260 248 233 223 215 204 213 212 189 173 169 165 159 144 144 159 156 153 159 156 160 175 137 142 168 170 165 146 160 150 156 171 181 265 294 306 343 325
296 306 310 309 309 300 256 243 224 207 204 205 200 196 187 173 163 156 148 149 150 147 153 155 160 171 150 159 158 159 165 160 155 167 167 149 125 243 294 272 233 246 263
323 315 317 315 312 301 275 243 224 212 208 206 193 183 183 180 163 150 143 140 146 151 157 158 162 162 162 162 159 181 173 166 165 171 149 171 201 68 301 304 291 287 293
314 308 312 311 313 308 283 235 223 209 205 207 193 181 169 158 154 148 140 139 144 154 152 146 156 171 156 168 164 188 180 185 176 171 164 265 211 13 319 305 289 291 295
312 315 311 295 313 329 304 236 221 207 200 203 184 165 160 152 148 144 142 145 150 137 142 148 160 164 157 165 172 203 186 191 187 177 159 157 6 327 328 307 300 300 307
310 314 296 289 310 328 293 251 214 202 186 120 120 136 142 143 141 144 144 142 131 137 142 145 156 167 161 168 173 187 210 185 210 199 212 160 79 316 319 315 305 326 316
306 305 286 290 313 320 167 213 98 91 105 114 124 136 142 145 139 136 135 131 134 135 140 148 158 171 166 153 176 179 234 99 218 228 198 174 66 300 310 300 337 315 304
301 296 282 244 75 18 117 109 125 124 130 130 135 135 130 130 131 132 130 130 136 143 147 158 163 167 167 161 160 171 174 185 256 203 77 33 302 276 268 274 304 298 305
275 271 247 205 136 121 109 122 138 140 135 132 129 127 128 125 123 125 129 136 145 151 157 165 170 167 178 169 164 177 172 161 207 160 191 276 288 260 263 257 279 306 312
236 236 236 192 126 109 114 120 136 135 130 122 122 118 121 126 122 120 130 146 156 165 169 174 174 178 180 176 172 167 178 186 158 68 253 253 270 285 287 296 301 305 308
207 203 198 175 138 130 122 122 139 143 137 130 124 126 126 122 120 121 110 74 114 122 125 142 164 143 130 143 155 161 172 167 166 212 249 272 279 289 296 301 305 306 307